{"data":{"norad_id":55650,"epoch":"2026-09-20T16:59:42.499392Z","epoch_age_seconds":85060,"freshness":"FRESH","line1":"1 55650U 23021Y   26263.70813078  .00000347  00000+0  36842-4 0  9992","line2":"2 55650  69.9997  52.7310 0002671 268.7651  91.3202 14.98337509198005","mean_motion":14.98337509,"eccentricity":0.0002671,"inclination_deg":69.9997,"raan_deg":52.731,"arg_perigee_deg":268.7651,"mean_anomaly_deg":91.3202,"bstar":3.6842e-5,"rev_number":19800,"period_min":96.106517480235,"perigee_km":570.17627975944,"apogee_km":573.88906039719,"semimajor_km":6950.1696700783,"source":"CELESTRAK","updated_at":"2026-09-21T09:00:33.284908Z"}}